�������l�o���
Date,Time,MP-1(��Sv/h),MP-2(��Sv/h),MP-3(��Sv/h),MP-4(��Sv/h),MP-5(��Sv/h),MP-6(��Sv/h),MP-7(��Sv/h),MP-8(��Sv/h),����,����(m/s),���J
2022/09/04,00:00,0.596,0.839,0.530,1.016,0.729,0.339,0.592,0.555,�k�k��,1.4,��
2022/09/04,00:10,0.594,0.837,0.529,1.018,0.726,0.338,0.590,0.554,�k�k��,1.7,��
2022/09/04,00:20,0.595,0.839,0.531,1.014,0.729,0.338,0.591,0.556,�k�k��,1.4,��
2022/09/04,00:30,0.595,0.840,0.529,1.019,0.729,0.338,0.591,0.554,�k�k��,2.2,��
2022/09/04,00:40,0.598,0.839,0.529,1.016,0.726,0.338,0.591,0.554,�k�k��,2.3,��
2022/09/04,00:50,0.596,0.840,0.531,1.017,0.726,0.339,0.591,0.555,�k�k��,2.3,�L
2022/09/04,01:00,0.595,0.840,0.531,1.017,0.727,0.340,0.592,0.554,�k,2.5,��
2022/09/04,01:10,0.596,0.840,0.531,1.015,0.726,0.338,0.590,0.554,�k,2.0,��
2022/09/04,01:20,0.596,0.837,0.530,1.016,0.727,0.339,0.592,0.555,�k,2.0,�L
2022/09/04,01:30,0.598,0.839,0.531,1.015,0.727,0.338,0.592,0.554,�k�k��,2.6,�L
2022/09/04,01:40,0.597,0.839,0.531,1.017,0.727,0.339,0.592,0.555,�k,2.0,��
2022/09/04,01:50,0.596,0.839,0.530,1.017,0.728,0.339,0.592,0.555,�k,1.2,��
2022/09/04,02:00,0.597,0.838,0.531,1.018,0.728,0.339,0.593,0.555,�k�k��,1.2,�L
2022/09/04,02:10,0.596,0.839,0.530,1.018,0.728,0.339,0.592,0.554,�k,1.2,�L
2022/09/04,02:20,0.596,0.839,0.531,1.015,0.730,0.340,0.593,0.554,�k,1.7,�L
2022/09/04,02:30,0.596,0.840,0.530,1.017,0.729,0.338,0.593,0.555,�k�k��,2.0,�L
2022/09/04,02:40,0.597,0.838,0.530,1.019,0.730,0.339,0.592,0.555,�k�k��,1.5,�L
2022/09/04,02:50,0.595,0.839,0.529,1.017,0.728,0.339,0.592,0.554,�k�k��,1.2,�L
2022/09/04,03:00,0.596,0.837,0.529,1.019,0.728,0.340,0.594,0.555,�k�k��,1.7,�L
2022/09/04,03:10,0.597,0.838,0.530,1.018,0.728,0.340,0.592,0.555,�k�k��,2.0,��
2022/09/04,03:20,0.597,0.839,0.529,1.018,0.727,0.340,0.594,0.555,�k��,1.5,��
2022/09/04,03:30,0.595,0.840,0.530,1.016,0.729,0.339,0.593,0.556,�k�k��,1.5,��
2022/09/04,03:40,0.595,0.838,0.530,1.014,0.727,0.340,0.594,0.553,�k�k��,1.2,��
2022/09/04,03:50,0.596,0.837,0.530,1.018,0.728,0.339,0.592,0.555,�k�k��,1.4,��
2022/09/04,04:00,0.596,0.839,0.530,1.016,0.730,0.339,0.592,0.555,�k�k��,1.5,��
2022/09/04,04:10,0.599,0.840,0.531,1.017,0.729,0.339,0.593,0.554,�k�k��,1.9,��
2022/09/04,04:20,0.598,0.839,0.531,1.016,0.729,0.338,0.593,0.554,�k�k��,2.3,��
2022/09/04,04:30,0.596,0.839,0.531,1.017,0.729,0.338,0.593,0.554,�k�k��,2.3,��
2022/09/04,04:40,0.597,0.838,0.530,1.017,0.728,0.338,0.592,0.554,�k�k��,2.9,��
2022/09/04,04:50,0.596,0.838,0.531,1.019,0.727,0.340,0.594,0.554,�k,3.1,��
2022/09/04,05:00,0.596,0.840,0.532,1.018,0.729,0.338,0.593,0.554,�k,3.7,��
2022/09/04,05:10,0.597,0.841,0.530,1.017,0.728,0.340,0.592,0.555,�k,3.6,��
2022/09/04,05:20,0.596,0.839,0.530,1.016,0.730,0.339,0.590,0.555,�k�k��,1.5,��
2022/09/04,05:30,0.596,0.839,0.532,1.018,0.727,0.339,0.592,0.556,�k,3.1,��
2022/09/04,05:40,0.597,0.838,0.531,1.018,0.728,0.338,0.592,0.555,�k,3.7,��
2022/09/04,05:50,0.597,0.840,0.531,1.018,0.728,0.339,0.593,0.555,�k,4.2,��
2022/09/04,06:00,0.596,0.839,0.530,1.018,0.729,0.338,0.592,0.554,�k,4.0,��
2022/09/04,06:10,0.595,0.837,0.530,1.020,0.730,0.339,0.593,0.556,�k,4.2,��
2022/09/04,06:20,0.597,0.838,0.531,1.018,0.728,0.340,0.593,0.555,�k,3.8,��
2022/09/04,06:30,0.595,0.841,0.531,1.018,0.728,0.339,0.592,0.555,�k,3.9,��
2022/09/04,06:40,0.596,0.838,0.529,1.017,0.727,0.339,0.592,0.556,�k�k��,3.9,��
2022/09/04,06:50,0.596,0.836,0.531,1.018,0.729,0.340,0.591,0.554,�k�k��,3.9,��
2022/09/04,07:00,0.594,0.838,0.529,1.018,0.729,0.339,0.591,0.552,�k�k��,4.1,��
2022/09/04,07:10,0.594,0.836,0.529,1.017,0.727,0.337,0.590,0.554,�k�k��,4.1,�L
2022/09/04,07:20,0.595,0.836,0.528,1.018,0.725,0.338,0.589,0.554,�k�k��,3.9,�L
2022/09/04,07:30,0.595,0.837,0.529,1.015,0.726,0.338,0.591,0.553,�k�k��,3.4,�L
2022/09/04,07:40,0.595,0.837,0.529,1.018,0.727,0.337,0.589,0.554,�k,3.2,��
2022/09/04,07:50,0.595,0.837,0.529,1.017,0.729,0.336,0.589,0.553,�k,2.5,��
2022/09/04,08:00,0.593,0.838,0.529,1.016,0.727,0.338,0.588,0.552,�k�k��,2.8,�L
2022/09/04,08:10,0.594,0.838,0.530,1.019,0.727,0.339,0.589,0.553,�k,2.3,�L
2022/09/04,08:20,0.595,0.837,0.530,1.018,0.728,0.337,0.589,0.553,�k,2.3,�L
2022/09/04,08:30,0.595,0.838,0.530,1.018,0.725,0.338,0.588,0.553,�k,2.0,�L
2022/09/04,08:40,0.594,0.836,0.530,1.017,0.727,0.337,0.587,0.553,�k�k��,2.3,�L
2022/09/04,08:50,0.593,0.835,0.529,1.017,0.726,0.340,0.588,0.553,�k,2.9,�L
2022/09/04,09:00,0.595,0.838,0.530,1.015,0.728,0.338,0.588,0.554,�k�k��,3.6,��
2022/09/04,09:10,0.593,0.834,0.529,1.017,0.726,0.338,0.587,0.553,�k�k��,4.0,�L
2022/09/04,09:20,0.594,0.836,0.530,1.016,0.726,0.338,0.588,0.553,�k�k��,4.0,�L
2022/09/04,09:30,0.593,0.836,0.530,1.017,0.727,0.338,0.588,0.553,�k��,3.5,��
2022/09/04,09:40,0.593,0.838,0.530,1.018,0.727,0.337,0.589,0.553,�k�k��,3.0,��
2022/09/04,09:50,0.592,0.836,0.529,1.016,0.726,0.338,0.588,0.554,�k�k��,3.2,��
2022/09/04,10:00,0.592,0.834,0.529,1.017,0.728,0.338,0.587,0.553,�k��,3.1,��
2022/09/04,10:10,0.593,0.836,0.528,1.017,0.728,0.338,0.588,0.554,�k��,2.6,��
2022/09/04,10:20,0.593,0.837,0.530,1.015,0.727,0.337,0.587,0.552,�k��,2.2,��
2022/09/04,10:30,0.593,0.837,0.529,1.015,0.726,0.337,0.587,0.553,�k��,2.0,��
2022/09/04,10:40,0.593,0.836,0.527,1.017,0.727,0.338,0.587,0.553,�k��,2.3,��
2022/09/04,10:50,0.592,0.835,0.527,1.014,0.727,0.337,0.588,0.552,�k��,2.6,�L
2022/09/04,11:00,0.591,0.834,0.527,1.016,0.726,0.337,0.587,0.553,���k��,3.1,�L
2022/09/04,11:10,0.594,0.836,0.528,1.016,0.726,0.336,0.588,0.553,���k��,3.7,�L
2022/09/04,11:20,0.593,0.834,0.529,1.016,0.729,0.336,0.588,0.552,���k��,3.4,��
2022/09/04,11:30,0.592,0.833,0.528,1.016,0.729,0.337,0.588,0.552,���k��,2.6,��
2022/09/04,11:40,0.593,0.833,0.528,1.016,0.728,0.337,0.587,0.551,���k��,3.3,��
2022/09/04,11:50,0.593,0.835,0.527,1.015,0.727,0.337,0.588,0.551,���k��,3.1,��
2022/09/04,12:00,0.593,0.834,0.528,1.015,0.727,0.337,0.587,0.552,���k��,3.3,��
2022/09/04,12:10,0.594,0.837,0.527,1.016,0.726,0.337,0.587,0.552,���k��,2.9,��
2022/09/04,12:20,0.594,0.833,0.529,1.018,0.727,0.338,0.587,0.552,���k��,3.9,��
2022/09/04,12:30,0.597,0.834,0.528,1.015,0.726,0.338,0.588,0.552,���k��,3.9,��
2022/09/04,12:40,0.594,0.836,0.528,1.016,0.724,0.338,0.589,0.553,�k��,2.9,��
2022/09/04,12:50,0.595,0.836,0.527,1.018,0.725,0.338,0.589,0.551,���k��,3.4,��
2022/09/04,13:00,0.594,0.836,0.526,1.018,0.726,0.338,0.588,0.553,���k��,2.6,��
2022/09/04,13:10,0.594,0.836,0.526,1.015,0.725,0.337,0.587,0.551,�k��,3.6,��
2022/09/04,13:20,0.595,0.839,0.528,1.016,0.726,0.338,0.590,0.552,�k��,3.2,��
2022/09/04,13:30,0.594,0.837,0.527,1.015,0.727,0.337,0.589,0.553,�k��,3.2,�L
2022/09/04,13:40,0.593,0.838,0.527,1.018,0.726,0.338,0.589,0.553,�k��,2.6,�L
2022/09/04,13:50,0.595,0.835,0.526,1.016,0.725,0.339,0.588,0.552,�k��,2.3,��
2022/09/04,14:00,0.595,0.836,0.528,1.018,0.725,0.338,0.588,0.552,�k��,2.5,��
2022/09/04,14:10,0.593,0.838,0.529,1.017,0.725,0.336,0.587,0.553,�k��,3.2,��
2022/09/04,14:20,0.594,0.838,0.529,1.016,0.727,0.338,0.589,0.553,���k��,3.7,��
2022/09/04,14:30,0.594,0.836,0.529,1.018,0.729,0.339,0.590,0.553,���k��,3.5,��
2022/09/04,14:40,0.593,0.838,0.528,1.017,0.729,0.338,0.590,0.552,�k��,2.6,��
2022/09/04,14:50,0.596,0.837,0.530,1.019,0.729,0.337,0.590,0.553,�k��,2.6,��
2022/09/04,15:00,0.595,0.838,0.526,1.016,0.727,0.338,0.590,0.551,���k��,2.3,��
2022/09/04,15:10,0.593,0.839,0.528,1.018,0.729,0.337,0.590,0.552,���k��,2.5,��
2022/09/04,15:20,0.594,0.838,0.529,1.019,0.727,0.339,0.589,0.553,���k��,2.0,��
2022/09/04,15:30,0.594,0.838,0.526,1.017,0.729,0.339,0.590,0.553,��,4.0,�L
2022/09/04,15:40,0.595,0.836,0.529,1.016,0.727,0.337,0.591,0.553,���k��,3.3,�L
2022/09/04,15:50,0.594,0.836,0.529,1.018,0.726,0.337,0.590,0.554,���k��,2.6,�L
2022/09/04,16:00,0.594,0.839,0.527,1.017,0.728,0.339,0.590,0.552,���k��,3.0,�L
2022/09/04,16:10,0.595,0.840,0.529,1.019,0.725,0.338,0.591,0.553,���k��,2.5,�L
2022/09/04,16:20,0.594,0.840,0.529,1.017,0.725,0.338,0.590,0.551,���k��,2.5,�L
2022/09/04,16:30,0.594,0.839,0.530,1.019,0.725,0.338,0.590,0.552,���k��,1.9,�L
2022/09/04,16:40,0.595,0.839,0.530,1.018,0.727,0.339,0.589,0.554,�k�k��,0.9,�L
2022/09/04,16:50,0.596,0.838,0.529,1.019,0.726,0.337,0.590,0.554,���k��,1.4,�L
2022/09/04,17:00,0.596,0.842,0.529,1.019,0.725,0.339,0.590,0.553,��,1.5,��
2022/09/04,17:10,0.597,0.840,0.530,1.017,0.727,0.339,0.590,0.553,��,1.5,��
2022/09/04,17:20,0.596,0.840,0.528,1.018,0.726,0.338,0.590,0.553,���k��,1.1,��
2022/09/04,17:30,0.596,0.843,0.529,1.018,0.725,0.339,0.590,0.554,���k��,1.4,�L
2022/09/04,17:40,0.596,0.838,0.529,1.018,0.727,0.337,0.588,0.552,�k��,1.4,�L
2022/09/04,17:50,0.596,0.840,0.529,1.018,0.727,0.337,0.590,0.553,�k��,1.2,�L
2022/09/04,18:00,0.595,0.841,0.528,1.018,0.728,0.336,0.589,0.553,�k��,0.8,�L
2022/09/04,18:10,0.596,0.840,0.530,1.019,0.726,0.337,0.590,0.553,�k�k��,1.7,�L
2022/09/04,18:20,0.596,0.839,0.529,1.018,0.725,0.337,0.591,0.552,�k��,1.5,�L
2022/09/04,18:30,0.596,0.841,0.531,1.020,0.726,0.339,0.590,0.553,�k�k��,1.9,�L
2022/09/04,18:40,0.598,0.841,0.530,1.018,0.727,0.339,0.590,0.553,�k��,2.8,�L
2022/09/04,18:50,0.595,0.840,0.529,1.017,0.727,0.338,0.591,0.553,�k�k��,2.5,��
2022/09/04,19:00,0.596,0.839,0.529,1.017,0.728,0.338,0.589,0.553,�k��,3.0,��
2022/09/04,19:10,0.596,0.839,0.529,1.018,0.728,0.338,0.590,0.555,�k�k��,2.3,��
2022/09/04,19:20,0.595,0.839,0.530,1.016,0.725,0.338,0.590,0.553,�k��,2.3,��
2022/09/04,19:30,0.594,0.840,0.530,1.020,0.727,0.338,0.590,0.554,�k��,2.2,��
2022/09/04,19:40,0.594,0.839,0.529,1.019,0.727,0.338,0.590,0.553,�k��,2.3,��
2022/09/04,19:50,0.594,0.839,0.531,1.018,0.726,0.338,0.590,0.552,�k��,2.0,��
2022/09/04,20:00,0.594,0.840,0.529,1.018,0.727,0.338,0.590,0.554,�k�k��,2.0,��
2022/09/04,20:10,0.595,0.838,0.528,1.017,0.726,0.338,0.590,0.552,�k��,2.6,��
2022/09/04,20:20,0.594,0.838,0.530,1.016,0.725,0.337,0.591,0.553,�k�k��,2.2,��
2022/09/04,20:30,0.594,0.839,0.529,1.018,0.728,0.337,0.589,0.552,�k��,2.6,��
2022/09/04,20:40,0.593,0.839,0.528,1.018,0.725,0.337,0.589,0.554,�k��,2.6,�L
2022/09/04,20:50,0.594,0.838,0.527,1.017,0.726,0.337,0.589,0.553,�k��,2.0,�L
2022/09/04,21:00,0.595,0.837,0.528,1.016,0.725,0.336,0.589,0.553,�k�k��,1.2,�L
2022/09/04,21:10,0.593,0.837,0.528,1.017,0.726,0.337,0.590,0.554,���k��,2.6,�L
2022/09/04,21:20,0.593,0.838,0.530,1.016,0.726,0.338,0.588,0.553,���k��,1.5,�L
2022/09/04,21:30,0.593,0.836,0.527,1.016,0.726,0.337,0.589,0.554,�k�k��,1.4,�L
2022/09/04,21:40,0.595,0.836,0.527,1.016,0.727,0.337,0.590,0.554,�k�k��,1.5,�L
2022/09/04,21:50,0.594,0.833,0.526,1.017,0.725,0.337,0.589,0.554,�k��,1.4,�L
2022/09/04,22:00,0.593,0.832,0.525,1.017,0.726,0.338,0.589,0.552,�k��,2.0,�L
2022/09/04,22:10,0.594,0.834,0.527,1.018,0.724,0.339,0.589,0.553,���k��,2.2,�L
2022/09/04,22:20,0.591,0.833,0.526,1.018,0.726,0.338,0.589,0.554,���k��,2.2,�L
2022/09/04,22:30,0.593,0.832,0.526,1.019,0.725,0.339,0.591,0.553,���k��,1.9,�L
2022/09/04,22:40,0.592,0.831,0.526,1.017,0.724,0.339,0.589,0.554,���k��,1.7,�L
2022/09/04,22:50,0.591,0.831,0.526,1.017,0.723,0.339,0.588,0.554,�k��,1.5,��
2022/09/04,23:00,0.595,0.829,0.524,1.015,0.723,0.338,0.589,0.555,��,2.3,��
2022/09/04,23:10,0.593,0.829,0.526,1.017,0.723,0.337,0.589,0.553,��,1.7,��
2022/09/04,23:20,0.592,0.831,0.527,1.018,0.723,0.338,0.590,0.555,��,1.2,��
2022/09/04,23:30,0.593,0.829,0.525,1.016,0.724,0.338,0.589,0.555,��,0.8,��
2022/09/04,23:40,0.593,0.830,0.525,1.017,0.723,0.336,0.589,0.554,���쓌,0.6,��
2022/09/04,23:50,0.594,0.830,0.526,1.016,0.723,0.337,0.590,0.554,�쓌,1.1,�L
